Theta_e
314 311 308 308 308 308 307 307 306 305 306 305 304 304 305 306 309 312 312 314 316 317 316 315 314 314 314 312 311 314 317 319 321 324 325 325 326 326 326 325 326 326 325 325 326 327 328 328 328 328 329 329 329 329 330 330 331 332 331 329 330 330 330
311 310 309 309 308 308 308 307 306 306 306 305 305 304 304 304 304 305 306 307 309 312 312 309 306 306 306 305 304 305 308 309 311 315 319 321 322 323 324 324 324 324 325 325 325 326 326 327 327 328 328 328 328 329 330 329 330 330 330 330 330 330 330
309 309 310 309 309 309 308 307 307 307 306 305 305 305 305 305 304 304 304 304 304 306 307 305 304 304 304 304 304 303 304 304 304 306 310 312 313 315 317 319 321 321 322 324 324 324 324 324 325 326 326 326 326 328 328 328 329 329 329 329 329 329 330
309 309 310 310 309 309 308 308 310 309 307 306 306 306 306 305 305 306 305 305 305 305 305 305 304 305 305 305 305 305 305 305 304 304 304 305 305 306 307 312 315 315 316 319 320 321 321 322 323 323 323 323 323 325 325 326 327 327 327 327 327 328 328
309 309 309 309 310 310 309 310 311 311 309 307 306 306 306 306 306 306 305 305 305 305 305 305 305 306 306 306 306 306 306 306 306 306 305 305 304 303 303 304 305 306 308 310 313 315 317 319 320 320 320 321 322 322 323 324 323 322 322 324 325 326 327
309 309 309 309 310 311 311 310 311 313 311 308 307 306 306 306 306 306 306 305 305 305 305 305 306 306 306 306 306 306 306 306 306 305 305 305 304 304 304 303 303 303 304 304 305 306 308 312 316 319 318 318 319 319 319 319 320 320 320 321 322 323 325
309 309 309 309 310 311 312 310 311 314 314 311 308 307 307 306 306 306 306 306 305 305 305 306 306 306 305 305 305 305 305 305 305 305 305 304 304 304 304 304 304 303 303 303 303 303 303 305 312 315 314 315 316 316 316 315 316 318 320 321 321 321 323
309 309 309 310 309 310 311 310 311 313 315 313 310 307 307 307 306 306 306 306 305 305 305 306 305 305 305 305 305 305 305 305 304 304 304 304 303 303 303 303 303 303 303 303 303 303 303 303 306 307 308 311 313 314 315 315 315 315 317 317 318 319 320
309 309 309 310 310 310 310 310 311 312 314 314 310 308 307 307 307 306 306 306 306 305 305 305 305 305 305 304 304 304 304 304 304 304 303 303 303 303 303 302 302 302 302 303 303 303 303 303 303 303 304 308 312 313 313 314 315 315 316 317 318 319 320
309 309 309 309 309 310 311 311 311 311 312 312 311 309 308 307 307 307 307 307 306 306 305 305 305 305 304 304 304 304 304 304 304 304 303 303 303 303 302 302 302 302 302 302 302 302 302 303 303 303 304 307 310 312 313 313 314 315 316 316 316 317 317
310 310 310 309 309 310 310 311 311 311 311 311 311 311 309 308 308 307 307 307 307 306 306 305 305 305 305 304 304 304 304 304 304 304 304 303 303 303 302 301 301 302 301 301 301 301 302 302 302 302 303 305 307 310 311 313 313 313 314 313 314 316 317
312 311 310 310 310 310 310 311 311 312 311 311 311 312 311 310 309 308 308 307 307 307 306 306 306 305 305 304 304 304 304 304 304 304 304 304 303 303 303 302 301 301 300 301 301 300 300 301 301 302 303 305 306 306 307 310 312 312 312 313 314 314 314
312 312 311 311 311 310 310 311 311 312 312 312 311 311 312 311 310 309 308 308 307 307 307 306 306 306 305 305 304 304 304 304 303 304 304 304 304 303 303 302 301 301 300 301 301 301 301 301 300 300 302 303 305 305 305 307 311 312 311 311 311 309 309
313 313 312 312 312 311 311 311 311 312 312 312 312 312 312 312 311 311 309 309 308 307 307 307 306 306 305 305 305 304 303 303 303 303 303 304 304 304 303 302 302 301 301 301 300 301 303 303 302 303 303 303 304 305 306 307 309 310 310 310 310 310 308
311 312 313 313 313 313 313 312 312 312 313 313 313 312 312 312 312 312 311 310 309 308 308 307 307 306 306 306 305 305 304 303 303 303 303 303 303 303 303 303 302 301 301 300 299 300 303 303 303 305 306 305 304 305 305 305 307 308 309 309 309 309 308
311 310 311 313 314 315 316 315 314 313 314 314 315 314 313 312 312 312 312 311 310 309 309 308 307 306 306 306 305 305 305 304 303 302 302 303 303 303 303 303 302 301 300 300 299 299 300 300 301 304 306 305 304 303 303 302 303 305 307 307 307 308 308
316 313 311 311 311 313 315 317 316 316 315 315 315 315 315 314 313 313 312 312 311 311 310 309 308 308 307 306 305 305 305 305 303 303 302 303 303 303 303 303 302 301 300 300 298 298 299 299 300 302 304 305 305 305 304 303 302 303 305 306 306 306 305
320 319 317 315 313 312 312 313 315 316 316 316 316 316 316 315 314 313 313 313 312 312 311 310 310 308 307 306 306 305 305 304 304 303 302 302 303 303 303 302 301 300 300 299 298 298 298 298 298 299 300 302 304 305 305 305 305 305 306 306 306 305 304
321 321 321 320 319 318 316 314 313 314 315 316 317 317 316 316 315 313 313 313 313 312 312 311 310 309 308 307 306 305 305 304 304 303 302 302 302 302 302 301 300 299 299 298 297 297 297 297 297 298 298 299 300 301 302 303 304 304 305 306 306 306 306
321 322 323 323 322 322 321 320 318 317 316 316 316 317 317 317 316 315 313 313 313 313 312 311 311 310 309 308 307 306 305 304 304 303 303 302 302 302 301 300 299 298 297 296 296 296 296 296 296 297 298 299 300 301 301 301 302 302 303 304 305 306 306
314 318 320 322 323 323 322 321 321 320 319 319 318 318 318 318 317 316 314 313 313 313 312 311 311 310 309 308 307 306 305 305 304 303 302 302 301 300 300 298 297 296 296 295 295 295 295 295 295 296 297 299 300 301 302 302 302 302 302 303 304 305 305
308 310 313 316 319 322 322 322 321 320 320 320 320 320 319 319 318 317 316 314 313 312 312 311 311 310 309 308 307 306 306 305 304 303 302 301 300 299 298 297 296 295 294 294 294 294 294 294 294 295 295 296 297 299 300 302 303 303 303 304 304 304 305
305 306 306 308 311 316 319 321 321 320 320 320 320 320 320 319 318 316 316 315 313 312 312 312 311 311 310 308 307 306 305 305 304 303 302 300 299 298 298 296 295 295 295 294 293 293 294 294 294 294 295 295 295 296 298 299 301 302 303 303 304 304 305
304 305 305 306 306 307 311 317 320 320 320 319 319 320 320 319 318 316 315 314 314 313 312 312 312 311 310 308 306 306 305 304 303 301 300 299 298 297 297 296 295 294 294 293 293 293 293 294 294 294 294 295 295 295 296 297 298 299 301 302 303 303 304
304 304 305 305 305 304 305 312 317 319 319 319 319 320 319 318 316 315 314 313 313 313 313 312 312 311 309 307 306 305 304 303 301 299 298 297 296 296 296 295 294 294 293 293 293 293 293 294 294 294 294 295 295 295 296 296 296 297 298 299 301 302 302
303 303 304 304 304 305 306 309 314 317 318 319 318 319 319 318 316 315 314 313 312 313 312 312 311 310 308 307 306 305 303 301 299 297 296 296 295 295 294 293 293 293 292 293 293 293 294 294 294 295 295 295 295 295 296 296 296 296 296 297 298 299 300
302 302 303 303 303 305 307 310 312 315 317 317 317 318 318 317 316 315 314 313 312 312 312 311 310 309 307 306 305 304 301 299 297 295 294 294 294 294 293 292 292 292 292 292 293 293 294 294 295 295 295 295 296 296 296 296 296 297 297 297 297 297 297
301 301 301 302 302 303 306 307 309 313 315 314 316 317 317 316 316 315 314 313 312 312 311 310 309 307 306 305 304 302 299 296 295 295 294 294 293 293 292 292 292 292 292 293 293 293 294 294 295 295 295 295 295 295 296 297 297 297 298 298 298 298 298
300 301 301 302 302 301 303 303 306 312 314 312 314 317 317 317 316 314 313 312 312 311 310 309 307 306 305 303 301 299 297 296 295 295 294 294 293 293 292 292 292 293 293 293 293 294 294 295 295 295 295 295 295 295 296 296 296 296 297 297 297 298 298
300 300 300 302 303 303 302 301 304 310 312 312 314 316 316 316 315 314 313 312 311 310 308 307 305 304 303 301 298 297 296 296 296 296 295 295 294 294 293 293 293 293 293 293 293 294 295 295 295 295 295 295 295 295 295 296 295 295 295 295 296 296 296
299 299 300 302 303 303 302 302 306 311 310 311 314 315 314 314 314 313 312 311 309 308 306 305 304 302 300 298 296 296 296 296 297 297 296 296 296 295 294 294 293 292 293 293 294 294 295 295 295 294 294 294 294 294 295 295 295 295 295 295 295 295 295
299 299 299 301 302 302 302 302 308 311 310 310 313 314 313 313 312 311 310 309 307 305 304 303 301 299 297 296 296 296 296 296 296 296 296 296 296 296 295 295 294 293 293 294 294 295 295 295 294 294 294 294 294 294 294 294 294 295 295 295 294 294 294
300 299 299 300 301 302 302 305 310 311 310 311 313 314 313 312 311 310 308 306 305 303 301 299 298 297 296 296 296 296 295 295 295 296 296 296 296 295 295 295 295 295 294 294 294 294 294 294 293 293 293 293 293 293 293 293 293 293 293 293 293 293 293
301 301 301 301 301 302 304 308 310 310 310 312 314 313 312 310 309 308 306 304 304 302 299 297 297 297 297 297 296 295 294 293 294 294 294 294 294 294 294 294 295 295 295 294 294 294 293 293 293 293 292 292 293 293 292 292 292 291 291 291 291 292 292
303 303 303 303 303 305 308 309 309 309 310 313 313 311 310 308 307 306 304 303 301 299 298 297 297 297 297 296 295 294 293 293 292 292 292 291 291 292 293 294 295 295 294 294 293 293 293 292 292 292 292 293 293 292 292 291 290 290 290 290 291 291 292
303 304 305 305 306 308 309 308 308 310 312 312 311 309 307 306 305 303 301 300 298 297 297 297 296 296 295 294 293 293 292 292 291 291 290 290 291 292 293 294 295 295 294 293 293 293 293 293 293 293 293 292 292 292 291 290 289 289 290 290 291 291 291
305 305 306 306 307 308 308 307 308 312 312 310 308 307 305 304 302 300 298 297 297 297 296 295 295 294 293 293 292 292 291 291 290 290 291 292 292 293 294 294 294 294 294 294 293 293 293 293 293 293 293 292 292 291 290 290 289 290 290 290 291 291 292
Wind_Speed
9 8 7 6 5 5 5 5 5 5 6 7 7 8 7 7 7 7 6 7 6 6 5 5 5 5 4 3 2 2 2 2 2 2 2 1 2 3 5 6 6 6 7 8 8 9 8 10 13 9 6 8 9 8 8 8 6 7 9 10 10 10 11
11 9 7 6 5 5 5 5 5 5 5 6 7 8 8 8 8 8 8 8 8 8 7 5 5 5 4 3 2 2 2 3 2 2 2 1 1 2 2 3 4 4 5 6 6 7 7 9 10 9 8 8 8 8 9 10 10 11 11 11 10 10 10
13 11 9 7 6 5 4 4 5 5 5 5 6 6 7 7 7 8 8 8 8 8 7 6 6 6 5 5 4 3 2 1 1 1 2 2 3 3 2 2 3 4 4 5 5 6 6 7 8 9 9 8 7 7 8 10 11 12 12 12 13 12 11
13 12 10 8 6 5 5 4 5 5 5 4 4 5 4 4 5 5 5 6 6 7 7 7 7 7 7 7 7 6 5 4 3 2 1 2 3 5 4 4 5 6 5 5 5 5 5 7 8 9 9 9 9 8 9 10 10 11 11 11 12 12 12
13 12 11 9 7 6 5 5 6 6 5 5 4 4 3 3 3 3 3 3 4 5 6 6 6 6 6 7 7 7 6 6 5 5 4 4 3 4 4 5 6 7 7 8 8 7 6 6 8 9 9 9 9 9 8 10 11 12 11 11 11 11 11
14 12 11 10 8 7 7 6 6 6 7 6 5 4 3 3 2 2 2 2 2 3 4 4 5 5 5 5 5 5 5 5 5 5 5 5 5 5 5 5 6 7 8 9 9 9 9 8 7 8 9 9 10 11 11 11 12 11 10 10 10 10 9
15 13 12 11 10 9 9 7 6 7 7 7 6 5 4 3 3 2 2 1 1 1 2 3 3 3 3 4 4 5 5 5 5 5 5 5 5 5 5 6 6 6 7 8 9 10 11 10 8 9 10 10 11 12 12 11 11 10 9 8 8 9 8
17 15 13 12 11 11 10 9 8 8 8 8 8 7 6 5 5 4 3 2 2 2 2 2 2 2 2 2 3 4 4 5 5 6 6 6 6 6 6 6 7 7 7 8 8 8 10 11 11 12 12 11 11 11 10 10 10 9 9 8 9 9 8
19 18 16 15 13 12 12 11 10 9 9 10 10 9 7 7 6 6 5 5 4 3 3 3 2 2 1 1 1 3 4 5 6 6 7 7 7 7 6 6 6 7 7 7 7 8 8 9 10 12 12 10 10 11 11 10 9 8 7 6 6 6 6
20 19 19 18 16 14 13 13 13 12 11 11 11 9 9 9 9 8 7 7 6 6 5 5 4 4 3 2 2 2 3 4 6 6 7 8 8 8 7 7 6 6 7 7 7 7 8 8 8 9 10 9 9 10 11 11 11 9 8 7 7 7 6
20 20 20 19 18 17 16 15 15 15 14 14 13 11 10 10 10 10 10 9 9 8 7 7 6 6 6 5 5 4 4 4 5 6 7 8 9 9 9 8 7 6 7 8 8 8 8 8 9 9 9 9 9 10 11 12 13 12 11 10 9 8 8
21 21 21 21 20 20 19 18 17 17 16 16 16 14 13 12 12 12 12 12 11 11 10 9 8 8 8 8 8 7 6 5 5 6 7 8 9 10 11 11 10 9 10 10 10 10 10 8 8 8 9 10 11 12 13 13 14 13 12 11 11 12 14
23 23 23 23 22 21 21 20 20 19 18 19 19 17 16 15 14 14 14 13 13 13 12 11 10 10 10 10 10 10 9 8 8 7 8 9 10 11 12 13 12 13 14 12 11 12 12 11 10 8 9 10 11 13 14 14 15 16 15 15 16 18 19
26 25 25 24 24 23 23 23 22 21 20 20 20 20 19 18 17 16 15 15 15 15 14 13 12 11 11 11 11 12 11 10 10 10 10 11 12 12 13 14 15 16 17 15 14 12 10 12 13 10 10 10 10 12 13 14 16 17 17 16 16 17 18
30 28 27 26 25 25 25 25 25 24 23 22 22 22 21 20 19 19 18 17 17 17 16 16 14 13 13 13 13 13 12 12 12 12 12 12 13 14 14 15 16 17 18 18 17 13 10 11 10 8 9 11 11 12 13 14 16 17 18 17 16 16 18
33 33 32 30 29 28 27 27 27 26 25 24 23 23 23 23 22 21 21 20 19 19 19 18 17 16 15 15 15 14 13 12 12 13 13 13 13 14 15 15 16 18 18 18 18 15 13 13 11 8 10 12 13 14 15 17 18 18 19 19 19 17 16
27 32 34 35 35 33 31 28 28 28 27 27 26 25 24 24 24 24 23 23 22 22 21 21 20 18 18 17 17 16 14 13 13 14 14 14 14 14 15 16 16 18 18 17 17 15 13 13 13 11 11 12 12 14 16 18 19 19 19 20 21 20 20
21 25 30 33 35 36 36 35 33 30 29 29 29 28 27 27 27 27 26 26 25 25 24 23 22 21 20 20 18 17 16 15 15 15 15 16 16 16 16 17 17 17 17 17 17 15 14 14 14 14 13 13 12 12 14 16 17 18 19 20 21 22 23
19 20 22 24 26 28 32 35 37 36 34 32 31 31 31 31 30 29 28 28 28 27 27 26 24 23 23 22 20 18 17 17 17 17 17 17 17 17 17 17 17 17 17 17 17 16 16 16 16 16 15 15 14 15 17 18 19 19 20 20 20 20 20
16 16 17 18 18 19 22 26 29 33 35 34 33 34 33 32 32 31 29 30 30 29 28 27 25 25 25 23 21 20 19 18 18 19 18 17 17 18 18 18 18 17 17 16 16 16 17 17 17 17 16 16 16 16 17 19 20 21 21 22 21 20 19
13 13 14 14 15 16 18 20 21 23 27 30 31 33 32 31 32 33 32 32 31 31 29 27 26 26 25 23 22 21 20 20 20 20 19 18 18 18 18 19 18 18 17 18 17 17 17 17 17 18 17 17 17 17 17 18 19 20 21 23 23 21 20
13 13 13 12 13 14 15 17 18 19 22 24 25 26 26 27 31 34 35 35 35 34 32 30 28 28 26 24 23 22 21 21 21 21 20 19 19 19 19 20 20 19 19 19 19 19 18 18 19 19 19 19 19 19 18 18 18 19 19 21 21 21 20
15 16 15 15 14 14 14 16 17 17 18 20 21 22 22 25 30 34 37 38 37 36 34 33 32 30 27 24 23 22 22 22 22 21 20 20 20 20 20 21 22 23 22 21 21 21 20 20 20 21 21 21 21 21 21 21 20 20 20 21 21 21 20
17 17 18 18 17 17 16 15 16 17 17 17 20 22 22 24 27 31 36 39 38 37 38 37 33 30 27 24 22 22 22 22 22 21 20 20 19 20 21 22 23 24 24 23 23 23 23 23 23 23 23 23 23 23 24 25 25 24 23 23 23 22 22
17 17 18 20 20 20 20 16 14 15 15 16 19 21 22 23 24 29 35 39 39 39 39 36 32 30 27 24 23 22 21 21 21 20 19 19 19 20 22 23 23 24 25 24 24 24 25 26 27 27 27 26 26 26 25 26 27 27 27 27 26 25 24
17 18 18 20 21 22 21 18 15 14 14 15 16 19 20 21 24 28 34 37 39 39 37 34 31 29 26 24 23 22 21 21 19 18 19 19 20 21 22 22 23 24 25 26 26 26 26 26 27 29 30 30 29 29 29 28 28 29 29 30 30 31 30
19 19 19 20 21 22 21 19 16 13 13 14 16 17 17 18 22 28 32 36 39 39 36 33 30 28 25 23 23 21 20 20 18 17 18 19 20 21 22 22 23 23 24 26 26 27 26 27 28 29 30 30 30 30 30 29 28 28 28 29 31 32 31
20 21 21 21 22 23 22 22 19 14 13 16 17 17 16 17 22 28 32 36 39 38 34 30 27 25 23 22 21 19 19 18 17 17 19 20 22 23 23 24 24 24 25 25 27 28 28 28 29 30 30 31 31 30 26 22 21 23 23 24 26 26 24
22 22 21 21 23 24 23 25 23 15 13 17 18 19 19 20 23 28 32 37 39 36 31 27 24 22 20 19 18 17 16 16 17 17 19 21 22 24 25 26 25 25 25 26 27 29 29 29 30 31 31 31 31 29 25 21 22 26 26 27 28 28 27
23 23 23 21 22 23 24 26 24 17 15 18 18 18 19 20 22 28 33 37 37 32 26 23 21 19 18 16 16 14 13 13 13 15 17 19 20 22 25 27 27 27 27 28 29 30 30 30 31 31 31 31 29 27 24 22 23 26 28 29 31 32 34
25 25 24 23 22 23 25 25 21 16 16 18 17 17 18 20 23 28 33 35 32 27 22 19 17 16 14 14 13 12 10 10 11 13 15 16 17 20 23 26 28 30 30 30 31 33 32 30 30 30 30 27 25 24 22 21 22 22 24 26 28 28 30
27 26 26 25 23 23 25 24 18 14 17 19 18 17 18 21 26 30 32 30 25 21 18 16 14 12 11 11 12 12 11 10 11 13 15 15 16 19 22 24 27 29 31 32 34 36 35 31 30 30 27 23 23 22 20 20 20 21 21 21 22 23 23
28 27 27 26 24 24 25 21 15 15 17 18 17 17 19 23 28 30 29 25 21 17 14 11 10 9 9 10 11 13 13 13 14 15 15 16 18 21 22 22 22 24 29 34 37 37 35 33 32 30 26 24 25 25 22 21 22 23 24 24 23 23 24
28 27 26 25 25 25 22 17 15 16 18 18 17 17 20 24 28 28 26 22 19 15 11 8 8 8 8 11 13 15 17 17 18 19 20 21 22 23 23 23 21 23 29 35 36 36 34 34 33 31 29 28 29 28 27 27 27 27 28 28 27 26 24
26 25 23 23 23 21 18 16 16 18 19 18 18 18 21 26 29 27 23 19 15 12 10 8 8 9 10 13 16 18 19 20 22 24 25 26 26 26 26 25 23 26 31 35 35 34 33 32 31 31 30 30 30 28 28 28 27 26 25 26 26 24 22
24 23 21 20 18 18 19 20 19 18 19 19 19 20 24 28 27 23 19 15 12 10 9 8 10 11 13 15 17 19 20 21 23 24 26 27 28 28 28 27 27 29 33 34 33 32 30 28 28 28 27 26 25 25 25 26 25 24 24 23 23 23 22
21 21 19 18 19 21 23 22 19 18 19 19 20 24 28 27 23 19 16 12 9 7 7 8 10 11 13 15 17 18 19 21 22 23 24 26 27 28 29 29 29 30 31 31 30 29 27 25 24 24 23 22 22 22 23 22 22 21 22 22 23 23 23
Wind_Direction
165 168 164 158 154 147 137 122 110 101 94 90 91 93 97 103 109 115 123 128 127 124 128 145 155 154 158 170 183 174 161 181 194 180 171 157 189 226 242 245 248 257 267 267 267 269 271 279 277 263 237 229 228 227 225 225 226 234 245 246 243 246 249
176 177 174 172 171 160 150 139 127 119 113 107 101 100 100 100 103 104 108 117 123 122 124 142 158 157 156 161 174 188 193 219 233 184 152 140 195 212 220 250 266 276 279 273 272 275 271 274 279 281 279 269 266 261 244 240 238 239 247 247 240 240 245
183 183 183 185 184 175 170 157 142 139 131 122 114 109 105 103 100 99 102 107 113 118 119 121 121 113 110 108 108 114 125 179 254 216 207 226 244 245 237 247 264 273 280 277 279 290 289 281 279 279 282 285 283 273 265 260 253 249 254 256 254 249 246
188 188 190 192 192 192 193 179 162 159 155 148 137 124 117 108 100 97 100 104 107 110 109 106 101 96 94 90 85 82 77 66 57 46 342 283 278 278 262 242 248 255 257 254 259 277 287 285 283 280 279 283 279 272 275 271 261 259 260 261 263 260 255
193 192 198 201 202 207 210 199 184 179 178 178 171 158 148 132 117 110 103 105 109 109 110 108 105 99 91 82 75 69 60 52 44 37 28 15 344 321 299 274 270 269 261 254 253 257 263 269 277 278 277 283 282 275 275 275 275 275 265 257 259 261 261
200 198 204 211 217 220 220 217 202 193 196 201 201 196 186 175 166 155 137 125 116 116 124 125 121 112 93 76 62 55 53 47 39 30 23 18 12 358 342 325 307 293 283 278 274 271 269 271 277 280 279 283 284 279 278 278 279 279 267 257 255 254 254
205 206 210 217 222 223 227 234 220 200 204 213 219 223 220 211 209 209 203 190 168 152 153 148 136 118 95 73 54 47 46 43 42 38 27 21 18 11 3 353 341 326 316 310 303 293 288 285 282 281 284 289 288 284 284 280 275 274 267 258 254 253 255
208 210 215 219 220 222 231 238 230 211 206 211 221 231 233 228 230 233 237 239 235 230 219 196 169 136 109 80 54 45 42 38 38 37 33 29 23 20 16 7 0 353 344 336 328 316 303 295 288 285 288 295 297 293 289 287 283 277 271 270 267 261 260
210 212 216 222 222 223 231 237 238 230 216 213 224 233 232 232 238 241 246 252 254 256 251 240 228 206 176 118 35 25 30 28 27 29 29 28 27 25 23 19 13 1 353 348 340 331 319 308 299 293 289 288 292 294 295 294 291 284 282 287 277 261 260
212 215 219 223 225 225 231 236 239 237 230 227 234 238 232 231 236 239 247 254 257 259 258 257 257 252 252 255 283 337 358 7 12 15 14 14 15 15 15 18 17 3 352 351 343 333 327 320 310 302 294 282 274 280 288 290 288 283 279 281 275 271 276
217 219 222 227 228 229 232 235 238 240 239 238 241 242 236 233 234 235 241 247 252 256 257 261 265 265 268 269 274 291 312 335 350 357 359 359 0 0 0 3 7 1 350 347 343 337 333 326 319 312 303 289 274 271 273 278 283 281 276 278 276 270 270
223 224 226 229 231 233 235 237 239 241 242 242 244 245 242 240 239 238 240 243 247 251 254 257 263 267 270 273 276 279 288 304 318 329 338 342 345 348 348 350 355 353 349 349 344 339 337 329 323 312 298 290 282 279 276 275 278 279 277 277 272 267 270
227 229 230 232 234 236 238 240 242 243 244 245 247 247 247 246 246 244 245 247 247 249 250 252 256 261 267 271 275 278 281 290 298 308 318 324 332 338 340 341 342 342 344 347 341 336 334 329 326 315 295 287 282 282 283 277 274 276 279 279 277 279 280
232 234 235 236 238 240 241 243 245 245 245 245 247 249 248 249 250 249 249 251 252 252 253 252 252 254 260 264 269 275 279 285 291 300 308 315 322 328 334 336 335 335 337 337 336 335 328 322 326 324 309 301 291 282 282 279 278 281 284 284 283 284 285
239 240 241 241 241 243 244 244 245 246 246 245 247 249 250 250 251 251 251 252 253 254 255 255 255 254 257 261 265 269 274 279 283 288 297 307 315 321 327 330 330 330 331 331 332 332 318 310 314 306 293 296 294 287 284 283 283 285 288 289 287 287 289
245 244 244 245 246 248 248 248 247 246 246 246 246 248 249 250 251 250 251 251 252 253 254 256 257 257 258 263 265 267 270 273 276 279 286 295 304 311 318 323 324 324 326 327 326 325 317 311 309 294 283 289 292 291 290 288 286 286 289 291 291 291 290
255 249 246 246 247 250 251 252 252 249 248 248 248 247 247 249 250 249 248 249 249 251 254 257 259 259 260 262 265 270 274 275 277 278 281 286 292 299 307 314 317 319 321 322 320 319 313 306 303 295 287 289 293 294 294 293 291 290 288 290 291 292 292
255 253 250 249 249 251 252 254 255 254 252 251 250 249 247 247 247 246 247 247 247 251 254 257 259 259 258 261 265 271 277 280 283 285 286 287 290 295 301 308 313 315 317 318 317 314 307 301 298 293 286 283 281 282 284 286 287 286 284 284 286 290 293
254 254 254 254 253 253 254 255 257 257 255 254 253 250 247 245 244 244 245 246 246 249 252 254 255 255 255 259 264 270 276 281 285 288 289 291 292 295 300 306 309 312 315 316 315 313 309 306 303 298 293 287 282 277 276 278 281 281 281 280 282 285 288
257 257 256 255 256 255 254 256 257 257 256 255 254 252 250 248 246 244 243 244 245 246 248 248 248 249 252 257 262 268 274 280 284 286 288 291 292 295 300 304 308 311 312 312 312 311 310 308 305 302 298 293 289 284 281 282 282 282 282 283 283 283 283
261 262 260 257 257 255 253 252 251 255 258 256 254 254 253 252 249 245 240 240 242 243 243 241 240 244 249 254 259 264 270 275 280 283 287 289 291 295 300 304 307 309 310 310 309 308 307 305 302 299 295 290 285 282 280 280 280 281 282 283 284 285 284
276 278 276 270 264 259 255 251 248 250 255 256 255 254 252 249 246 243 240 238 238 239 238 237 238 242 247 251 255 261 267 272 276 278 282 285 289 294 299 302 304 305 307 307 306 305 305 304 301 298 295 290 284 280 277 275 274 275 276 277 279 281 282
288 288 284 281 277 271 263 256 252 248 245 246 249 248 244 243 241 241 240 238 236 236 236 237 240 244 247 250 255 262 267 270 272 274 277 281 286 291 296 300 302 303 305 305 304 304 304 303 301 299 297 293 287 282 276 272 269 269 270 272 273 274 275
293 292 289 286 283 281 276 263 253 251 244 241 246 246 244 243 241 239 240 238 236 235 236 239 242 244 245 247 253 260 265 267 270 272 275 278 284 290 295 298 301 303 306 307 307 307 307 304 302 299 296 293 289 285 281 277 273 269 267 268 269 269 270
290 290 289 288 285 286 284 271 254 251 247 242 247 250 249 248 244 237 235 234 234 235 238 240 240 239 240 244 250 257 262 266 270 273 277 281 286 291 294 298 301 303 305 306 307 308 308 308 306 303 300 297 293 289 285 281 277 273 269 267 266 266 265
289 286 285 285 285 285 284 275 257 249 246 242 244 247 250 251 247 240 236 234 234 236 237 236 234 235 238 244 250 255 261 266 269 274 279 284 289 293 296 300 303 305 307 308 310 311 311 310 309 306 304 302 299 296 292 287 283 278 272 267 264 263 262
290 287 283 282 282 282 281 275 261 249 248 246 240 240 245 246 245 244 239 234 232 234 233 231 230 234 239 245 251 255 258 263 269 275 282 288 293 296 299 302 305 308 309 310 311 311 310 309 307 305 303 301 299 297 294 290 287 284 279 274 271 268 266
291 289 285 282 280 279 279 276 268 256 252 254 246 239 242 246 247 246 238 231 230 232 230 227 229 234 238 244 250 253 257 266 276 283 288 293 297 299 301 303 306 309 310 310 310 308 307 307 306 304 302 300 298 296 290 282 278 276 272 270 272 273 269
292 290 286 282 279 277 276 276 273 261 258 264 253 239 240 248 248 243 234 229 230 229 226 224 226 231 236 242 249 255 265 278 286 290 295 299 301 302 303 304 307 309 309 308 307 304 304 306 305 303 302 300 298 294 287 277 274 275 270 262 258 257 257
291 289 286 281 278 276 275 275 271 259 258 266 259 245 243 245 242 238 233 229 225 221 217 218 223 228 234 242 252 262 274 283 285 288 294 298 299 301 302 305 308 309 308 307 305 304 305 306 305 303 302 298 294 289 284 279 277 278 279 274 267 260 258
290 288 285 281 276 274 274 273 265 255 256 260 254 247 245 242 239 235 230 224 218 213 212 214 219 228 236 247 258 266 275 281 280 283 289 292 293 296 299 304 308 310 309 307 306 306 307 307 306 304 300 295 290 284 281 279 277 276 277 278 278 276 273
287 284 282 280 275 272 272 269 258 248 254 254 246 242 241 239 234 225 217 211 206 203 205 209 217 231 243 255 265 269 276 282 282 283 287 288 289 293 298 302 306 308 307 306 305 307 308 308 307 304 298 290 285 282 281 280 279 277 274 273 274 276 277
287 281 276 274 272 268 267 264 250 243 249 249 243 241 241 238 228 214 202 195 191 190 196 207 221 236 248 256 264 272 279 284 284 285 288 290 292 296 298 298 300 300 299 299 302 305 307 307 306 302 295 286 284 284 283 279 274 270 269 269 269 269 269
287 278 271 267 265 262 259 252 241 241 246 246 243 242 237 226 211 197 189 189 191 194 200 210 220 231 246 257 267 277 284 286 287 288 291 294 295 297 296 296 296 292 290 294 300 303 304 303 302 297 291 287 286 286 283 279 275 271 269 268 269 269 269
283 273 265 260 257 254 249 243 239 241 243 244 244 237 220 204 194 187 186 188 189 190 192 201 219 234 250 265 275 284 289 291 292 295 296 297 297 296 295 295 292 287 289 295 300 301 301 300 297 294 290 289 288 286 282 279 276 273 271 270 269 268 266
279 267 259 254 251 246 243 242 238 235 237 242 237 217 198 188 183 179 178 175 175 186 195 211 236 251 265 276 283 288 292 294 295 296 296 296 296 297 296 294 291 291 295 298 299 298 298 297 294 292 291 289 286 283 281 277 273 270 269 268 267 265 264
271 262 257 252 245 239 239 240 234 229 234 235 218 195 182 176 171 167 166 167 175 195 216 239 257 268 278 283 287 290 292 293 294 294 295 296 298 299 298 296 296 298 300 300 299 300 302 302 301 300 298 294 289 285 280 274 270 269 267 266 265 265 265